Location: Kitchener
(43.4500°N, 80.5000°W)
Time: 01:59:53
(UTC-04:00)

Cosmos 1939 Rocket - Visible Passes

Search period start: 28 June 2016 00:00
Search period end: 08 July 2016 00:00
Orbit: 532 x 589 km, 97.6° (Epoch: 26 June)

Date Brightness Start Highest point End Pass type
(mag) Time Alt. Az. Time Alt. Az. Time Alt. Az.
28 Jun 2.9 21:47:12 10° S 21:51:09 81° WSW 21:55:03 10° NNW visible
29 Jun 2.9 21:46:15 10° S 21:50:10 83° WSW 21:54:05 10° NNW visible
30 Jun 2.8 21:45:17 10° SSE 21:49:12 85° WSW 21:53:06 10° NNW visible
01 Jul 2.8 21:44:19 10° SSE 21:48:14 87° W 21:52:08 10° NNW visible
02 Jul 2.8 21:43:21 10° SSE 21:47:16 90° SW 21:51:09 10° NNW visible
03 Jul 2.8 21:42:23 10° SSE 21:46:17 88° ENE 21:50:11 10° NNW visible
04 Jul 2.8 21:41:26 10° SSE 21:45:19 86° E 21:49:12 10° NNW visible
05 Jul 2.8 21:40:28 10° SSE 21:44:21 84° ENE 21:48:13 10° N visible
06 Jul 2.8 21:39:30 10° SSE 21:43:22 82° ENE 21:47:15 10° N visible
07 Jul 2.8 21:38:32 10° SSE 21:42:24 80° ENE 21:46:16 10° N visible
